TimeMST,TemperatureF,Dew PointF,Humidity,Sea Level PressureIn,VisibilityMPH,Wind Direction,Wind SpeedMPH,Gust SpeedMPH,PrecipitationIn,Events,Conditions,WindDirDegrees,DateUTC
12:53 AM,17.1,10.9,77,30.04,10.0,West,10.4,-,N/A,,Clear,280,2012-12-11 07:53:00
1:53 AM,14.0,9.0,80,30.05,10.0,WNW,8.1,-,N/A,,Clear,290,2012-12-11 08:53:00
2:53 AM,16.0,12.0,84,30.04,10.0,West,12.7,-,N/A,,Clear,280,2012-12-11 09:53:00
3:53 AM,12.9,7.0,77,30.06,10.0,West,11.5,-,N/A,,Clear,260,2012-12-11 10:53:00
4:53 AM,12.0,6.1,77,30.08,10.0,WNW,8.1,-,N/A,,Clear,290,2012-12-11 11:53:00
5:53 AM,14.0,7.0,74,30.07,10.0,West,9.2,-,N/A,,Clear,280,2012-12-11 12:53:00
6:53 AM,18.0,10.0,71,30.07,10.0,West,11.5,-,N/A,,Overcast,280,2012-12-11 13:53:00
7:53 AM,19.0,10.0,68,30.07,10.0,West,10.4,-,N/A,,Clear,280,2012-12-11 14:53:00
8:53 AM,27.0,16.0,63,30.06,10.0,West,15.0,-,N/A,,Clear,260,2012-12-11 15:53:00
9:53 AM,34.0,16.0,48,30.04,10.0,WSW,19.6,-,N/A,,Clear,250,2012-12-11 16:53:00
10:53 AM,36.0,15.1,43,30.00,10.0,WSW,16.1,-,N/A,,Clear,250,2012-12-11 17:53:00
11:53 AM,39.9,12.9,33,29.96,10.0,West,13.8,-,N/A,,Clear,280,2012-12-11 18:53:00
12:53 PM,41.0,10.9,29,29.92,10.0,West,12.7,24.2,N/A,,Clear,270,2012-12-11 19:53:00
1:53 PM,42.1,12.0,29,29.89,10.0,WNW,15.0,-,N/A,,Clear,290,2012-12-11 20:53:00
2:38 PM,42.8,12.2,29,29.79,10.0,WSW,16.1,-,N/A,,Clear,240,2012-12-11 21:38:00
2:53 PM,42.1,12.0,29,29.88,10.0,SW,13.8,-,N/A,,Clear,230,2012-12-11 21:53:00
3:53 PM,39.0,10.9,32,29.89,10.0,West,12.7,-,N/A,,Clear,260,2012-12-11 22:53:00
4:53 PM,30.0,8.1,40,29.93,10.0,SW,13.8,-,N/A,,Clear,230,2012-12-11 23:53:00
5:53 PM,24.1,6.1,46,29.95,10.0,SW,11.5,-,N/A,,Clear,220,2012-12-12 00:53:00
6:53 PM,30.9,8.1,38,29.90,10.0,SW,12.7,-,N/A,,Clear,220,2012-12-12 01:53:00
7:53 PM,28.0,8.1,43,29.90,10.0,SSW,13.8,-,N/A,,Clear,210,2012-12-12 02:53:00
8:53 PM,28.9,10.0,45,29.87,10.0,SW,15.0,-,N/A,,Clear,220,2012-12-12 03:53:00
9:53 PM,26.1,10.0,51,29.84,10.0,SSW,15.0,-,N/A,,Clear,210,2012-12-12 04:53:00
10:53 PM,25.0,10.9,55,29.84,10.0,SW,12.7,-,N/A,,Clear,230,2012-12-12 05:53:00
11:53 PM,19.9,10.0,65,29.84,10.0,WSW,9.2,-,N/A,,Clear,240,2012-12-12 06:53:00